Clarksburg, WV

3:32 AM EDT on September 16, 2019 (GMT -0400)
Benedum

Weather History for KCKB - July, 2019

Change the Weather History Date:

Tuesday, July 16, 2019

  Actual Average Record
Temperature  
Mean Temperature 80 °F -  
Max Temperature 86 °F 85 °F 97 °F (1995)
Min Temperature 73 °F 61 °F 47 °F (1939)
Cooling Degree Days 14    
Growing Degree Days 30 (Base 50)    
Moisture  
Dew Point 70 °F    
Average Humidity 72    
Maximum Humidity 85    
Minimum Humidity 60    
Precipitation  
Precipitation 0.00 in - - ()
Sea Level Pressure  
Sea Level Pressure 30.06 in    
Wind  
Wind Speed 3 mph (SSW)    
Max Wind Speed 8 mph    
Max Gust Speed -    
Visibility 10 miles    
Events      
Averages and records for this station are not official NWS values.
T = Trace of Precipitation, MM = Missing Value Source: NWS Daily Summary

Daily Weather History Graph

Daily Weather History Graph

Search for Another Location

Airport or City:

Astronomy

Jul. 16, 2019 Rise Set
Actual Time 6:07 AM EDT 8:46 PM EDT
Civil Twilight 5:36 AM EDT 9:17 PM EDT
Nautical Twilight 4:56 AM EDT 9:56 PM EDT
Astronomical Twilight 4:12 AM EDT 10:40 PM EDT
Moon 8:51 PM EDT 5:44 AM EDT
Length of Visible Light 15h 41m
Length of Day
14h 38m
Full, 100% of the Moon is Illuminated
Jul 16
Full
Jul 16
Full
Jul 24
Last Quarter
Jul 31
New
Aug 7
First Quarter

Hourly Weather History & Observations

Time (EDT) Temp. Heat Index Dew Point Humidity Pressure Visibility Wind Dir Wind Speed Gust Speed Precip Events Conditions
12:53 AM 75.9 °F - 70.0 °F 82% 30.06 in 10.0 mi Calm Calm - N/A   Clear
1:53 AM 75.0 °F - 70.0 °F 84% 30.07 in 10.0 mi Calm Calm - N/A   Scattered Clouds
2:53 AM 75.0 °F - 69.1 °F 82% 30.07 in 10.0 mi Calm Calm - N/A   Clear
3:53 AM 73.9 °F - 69.1 °F 85% 30.06 in 10.0 mi South 4.6 mph - N/A   Clear
4:53 AM 73.9 °F - 69.1 °F 85% 30.06 in 10.0 mi SSE 4.6 mph - N/A   Clear
5:53 AM 73.9 °F - 69.1 °F 85% 30.07 in 10.0 mi South 3.5 mph - N/A   Clear
6:53 AM 73.9 °F - 69.1 °F 85% 30.09 in 9.0 mi Calm Calm - N/A   Clear
7:53 AM 75.0 °F - 70.0 °F 84% 30.10 in 9.0 mi Calm Calm - N/A   Clear
8:53 AM 77.0 °F - 71.1 °F 82% 30.10 in 10.0 mi SSW 3.5 mph - N/A   Partly Cloudy
9:53 AM 79.0 °F - 70.0 °F 74% 30.10 in 10.0 mi SSW 5.8 mph - N/A   Scattered Clouds
10:53 AM 81.0 °F 83.8 °F 68.0 °F 65% 30.09 in 10.0 mi SSW 8.1 mph - N/A   Clear
11:53 AM 82.9 °F 86.5 °F 69.1 °F 63% 30.10 in 10.0 mi SW 5.8 mph - N/A   Clear
12:53 PM 84.0 °F 88.4 °F 70.0 °F 63% 30.10 in 10.0 mi SSW 8.1 mph - N/A   Clear
1:53 PM 84.0 °F 87.8 °F 69.1 °F 61% 30.09 in 10.0 mi WSW 6.9 mph - N/A   Partly Cloudy
2:53 PM 84.9 °F 89.4 °F 70.0 °F 61% 30.06 in 10.0 mi South 8.1 mph - N/A   Clear
3:53 PM 84.9 °F 89.4 °F 70.0 °F 61% 30.05 in 10.0 mi SSW 6.9 mph - N/A   Clear
4:53 PM 84.9 °F 89.4 °F 70.0 °F 61% 30.03 in 10.0 mi South 4.6 mph - N/A   Clear
5:53 PM 84.9 °F 90.1 °F 71.1 °F 63% 30.01 in 10.0 mi SSW 4.6 mph - N/A   Clear
6:53 PM 86.0 °F 91.5 °F 71.1 °F 61% 30.01 in 10.0 mi South 5.8 mph - N/A   Clear
7:53 PM 82.9 °F 85.8 °F 68.0 °F 60% 30.00 in 10.0 mi South 3.5 mph - N/A   Clear
8:53 PM 82.0 °F 84.9 °F 68.0 °F 62% 29.99 in 10.0 mi SE 3.5 mph - N/A   Clear
9:53 PM 79.0 °F - 70.0 °F 74% 30.01 in 10.0 mi Calm Calm - N/A   Clear
10:53 PM 78.1 °F - 70.0 °F 76% 30.01 in 10.0 mi Calm Calm - N/A   Clear
11:53 PM 78.1 °F - 69.1 °F 74% 30.01 in 10.0 mi Calm Calm - N/A   Clear